NOAA 16 DEB, 41366

Orbit data source: Space-Track

NOAA 16 DEB, 41366 is space debris in SSO originally from a launch on Thu, 21 Sep 2000 UTC launched from the Air Force Western Test Range (AFWTR). Debris objects in space refer to the collection of defunct objects orbiting the Earth. Examples of debris include non-operational satellites, rocket bodies, and fragments generated from explosions, collisions, or faulty payload assembly.

Loading next visibility...
Identifier
41366, 2000-055JK
Orbit
SSO
Last TLE update
3 days ago
Origin
Manufacturer
Unknown
Mission
Spacecraft
Bus & Motor
Unknown
Mass
Unknown
Launch date (UTC)
2000-09-21 (25 years ago)
Launch vehicle
Unknown
Launch site
Air Force Western Test Range (AFWTR)
Object type
Payload
Rocket body
Debris
Shape & HBR
Unknown
Radar Cross Section
Small (<0.1 m²)

Expand to show TLE details & history

TLE from 3 days ago
0 NOAA 16 DEB
1 41366U 00055JK  25184.09670235  .00008169  00000-0  30187-2 0  9997
2 41366  98.9388 283.5305 0032499 185.2699 174.8146 14.32369293483761
Epoch: 2025-07-03T02:19Z
TLE epoch observation values (Epoch: 2025-07-03T02:19:15.083Z)
Latitude
-0.00001°
Longitude
-32.6507°
Altitude
809.932 km
Speed
7.436 km/s
True Right ascension
18h 54m 07s
True Declination
0° 00' 00"
Sunlit
Object was in full shadow at epoch
Visualization orbit readout
Latitude
48.22775°
Longitude
160.19815°
Altitude
775.095 km
Speed
7.48 km/s
Apparent Right ascension
13h 28m 29s
Apparent Declination
39° 23' 28"
Sunlit
Object is in daylight
Visualization observer readout
Local Sidereal Time
06:33:50
Azimuth
51.196° ENE
Elevation
15.497°
Doppler factor
1
Orbital elements
Apogee altitude
804.242 km
Perigee altitude
757.709 km
Semi-major axis
7,159.112 km
Eccentricity
0.00325
Inclination
98.9388°
RAAN
283.5305°
Arg. of periapsis
185.2699°
True anomaly
Unknown
Mean anomaly
174.8146°
Eccentric anomaly
Unknown
Mean motion
3.58306 °/min
Orbital period
100.47 mins
BSTAR
0.0030187
Loading maneuver chart data...
Loading SW <> Apogee altitude chart data...
Loading historical data...
Loading historical data...
Loading historical data...
Loading historical data...
Loading historical data...
Loading historical data...
Loading historical data...

NOAA 16 DEB Visibility forecast

Observer location: undefined°, undefined°

Span
Click to sort rows by Start time (UTC) header in descending order
Start Az.
Max El. time (UTC)
Max El. Az.
Max El.
End time (UTC)
End Az.
6 mins2025-07-05 18:38:16.640Z51.446° ENE2025-07-05 18:41:16.640Z97.567° ESE22.519°2025-07-05 18:44:16.640Z141.72° SSE
7 mins2025-07-05 20:17:16.640Z348.757° N2025-07-05 20:20:16.640Z298.329° NW30.833°2025-07-05 20:24:16.640Z230.121° WSW
8 mins2025-07-06 05:54:16.640Z127.107° SE2025-07-06 05:57:16.640Z81.499° E30.717°2025-07-06 06:02:16.640Z4.008° NNE
7 mins2025-07-06 07:34:16.640Z220.704° SW2025-07-06 07:37:16.640Z267.544° W23.749°2025-07-06 07:41:16.640Z319.511° NNW
|